KOMPSAT-7

导读

KOMPSAT-7,又称阿里郎7号,由韩国航天研究院研制,于2025年12月1日由欧洲空间局(ESA)通过织女星-C火箭在法属圭亚那库鲁航天港发射,成功进入约576公里高度的太阳同步轨道。 这颗卫星是韩国多用途卫星系列的新一代超高分辨率对地观测卫星,全色分辨率达0.3米,可服务于国土测绘、灾害监测、国防安全等领域,将提升韩国自主获取高分辨率对地影像的能力。卫星设计寿命5年,目前已完成初期入轨测试,开始正常工作。

Basic Information
目录编号:
66820
目录名称:
KOMPSAT-7
国际标识:
2025-279A
轨道中心:
EARTH
卫星名称:
KOMPSAT-7
卫星全名:
KOMPSAT-7
卫星状态:
在轨 (已飞行288 天)
发射日期:
2025-12-01 UTC
国别 :
韩国 (KR)
星等 :
--
This satellite is enrolled in the Space Conjunction Data Service (SCDS) and the current flight risk assessment level is: No High Risk
Orbit Information
数据来源 国际轨道数据
星历时间: 2026-09-15T14:37:17+0800
16小时前
查看轨道信息
半长轴: 6941.218km
偏心率: 0.0013799
轨道倾角: 97.737°
近地点辐角 69.963°
升交点赤经 206.254°
平近点角 290.308°
近地点: 553.502km
远地点: 572.66km
周期: 95.921分钟
每日圈数: 15.012372
Detailed Information
使用方式:
暂无
2D Orbit Map
3D Orbit Map
Orbit Altitude Analysis Chart
Orbit Inclination Analysis Chart
Orbit Comprehensive Analysis Chart
View Comprehensive Chart
Conjunction Data List
Event ID Objects TCA Miss Dist (km) Collision Risk Probability Collision Risk Index (CRI) Action
CDM_260917-034104-229906-682022
2026-09-17T
03:41:29+0000
1.172 km
极远距离
1.536743E-5 中风险 0.59
CDM_260915-235305-649306-682023
2026-09-15T
23:53:59+0000
2.596 km
极远距离
1.524626E-6 低风险 0.39
CDM_260917-153506-217106-682023
2026-09-17T
15:35:33+0000
2.908 km
极远距离
1.400763E-6 低风险 0.38
Miss Distance Evolution Trend with All Objects Subscribe to Flight Safety Assessment
Collision Probability Evolution Trend with All Objects Subscribe to Flight Safety Assessment